TimePST,TemperatureF,Dew PointF,Humidity,Sea Level PressureIn,VisibilityMPH,Wind Direction,Wind SpeedMPH,Gust SpeedMPH,PrecipitationIn,Events,Conditions,WindDirDegrees,DateUTC
12:52 AM,46.0,34.0,63,30.14,-9999.0,ENE,13.8,-,N/A,,Unknown,60,2013-01-30 08:52:00
1:52 AM,48.0,30.9,52,30.13,-9999.0,Calm,Calm,-,N/A,,Unknown,0,2013-01-30 09:52:00
2:52 AM,50.0,28.9,44,30.14,-9999.0,East,6.9,-,N/A,,Unknown,80,2013-01-30 10:52:00
3:52 AM,50.0,28.0,43,30.15,-9999.0,ENE,12.7,-,N/A,,Unknown,70,2013-01-30 11:52:00
4:52 AM,50.0,27.0,41,30.16,-9999.0,NE,13.8,-,N/A,,Unknown,50,2013-01-30 12:52:00
5:52 AM,51.1,27.0,39,30.16,-9999.0,NE,21.9,32.2,N/A,,Unknown,50,2013-01-30 13:52:00
6:52 AM,50.0,27.0,41,30.19,-9999.0,NE,23.0,31.1,N/A,,Unknown,50,2013-01-30 14:52:00
7:52 AM,51.1,28.0,41,30.23,-9999.0,ENE,17.3,25.3,N/A,,Unknown,70,2013-01-30 15:52:00
8:52 AM,55.0,25.0,31,30.25,-9999.0,NE,16.1,28.8,N/A,,Unknown,50,2013-01-30 16:52:00
9:52 AM,55.9,25.0,30,30.25,-9999.0,ENE,25.3,29.9,N/A,,Unknown,70,2013-01-30 17:52:00
10:52 AM,57.0,27.0,32,30.24,-9999.0,ENE,19.6,-,N/A,,Unknown,70,2013-01-30 18:52:00
11:52 AM,57.9,28.0,32,30.20,-9999.0,ENE,21.9,26.5,N/A,,Unknown,70,2013-01-30 19:52:00
12:52 PM,59.0,28.0,31,30.17,-9999.0,ENE,21.9,31.1,N/A,,Unknown,70,2013-01-30 20:52:00
1:52 PM,59.0,27.0,29,30.15,-9999.0,ENE,21.9,27.6,N/A,,Unknown,70,2013-01-30 21:52:00
2:52 PM,60.1,27.0,28,30.14,-9999.0,East,16.1,-,N/A,,Unknown,80,2013-01-30 22:52:00
3:52 PM,60.1,26.1,27,30.13,-9999.0,East,13.8,-,N/A,,Unknown,90,2013-01-30 23:52:00
4:52 PM,57.0,27.0,32,30.14,-9999.0,ENE,13.8,-,N/A,,Unknown,70,2013-01-31 00:52:00
5:52 PM,51.1,28.0,41,30.14,-9999.0,ENE,11.5,-,N/A,,Unknown,70,2013-01-31 01:52:00
6:52 PM,44.1,28.9,55,30.17,-9999.0,NNE,5.8,-,N/A,,Unknown,30,2013-01-31 02:52:00
7:52 PM,46.0,28.0,50,30.19,-9999.0,Calm,Calm,-,N/A,,Unknown,0,2013-01-31 03:52:00
8:52 PM,39.9,28.9,65,30.21,-9999.0,North,5.8,-,N/A,,Unknown,10,2013-01-31 04:52:00
9:52 PM,37.0,28.9,73,30.21,-9999.0,NE,4.6,-,N/A,,Unknown,50,2013-01-31 05:52:00
10:52 PM,37.9,28.9,70,30.20,-9999.0,NE,4.6,-,N/A,,Unknown,50,2013-01-31 06:52:00
11:52 PM,35.1,28.9,78,30.20,-9999.0,Calm,Calm,-,N/A,,Unknown,0,2013-01-31 07:52:00